User: anonymous   Login
Location: Unspecified
(0.0000°N, 0.0000°E)
Time: 06:40:07
(UTC+00:00)
Language:

TBA - TO BE ASSIGNED - Orbit

View from above orbital plane
View from above orbital plane
View from above satellite
View from above satellite

Ground track
Ground track

The orbit is defined by the following mean orbital elements,

1 67359U          26145.35272731 +.00000000 +00000-0 +71224-3 0 00000
2 67359  43.0037 154.5367 0001836 246.5087 113.5572 15.27581806    07
Epoch (UTC): 25 May 2026 08:27:55
Eccentricity: 0.0001836
inclination: 43.0037°
perigee height: 482 km
apogee height: 484 km
right ascension of ascending node: 154.5367°
argument of perigee: 246.5087°
revolutions per day: 15.27581806
mean anomaly at epoch: 113.5572°

The dashed part of the orbit path shows where the satellite is in the earth's shadow,  

DLR